Time,TemperatureF,DewpointF,PressureIn,WindDirection,WindDirectionDegrees,WindSpeedMPH,WindSpeedGustMPH,Humidity,HourlyPrecipIn,Conditions,Clouds,dailyrainin,SoftwareType,DateUTC
2013-02-04 00:11:00,22.8,16.4,30.07,NNE,22,0.0,-999.0,76,0.00,,,0.00,open2300 v1.10,2013-02-04 05:11:00,
2013-02-04 00:21:00,22.8,16.4,30.07,NNE,22,0.0,-999.0,76,0.00,,,0.00,open2300 v1.10,2013-02-04 05:21:00,
2013-02-04 00:31:00,22.8,16.4,30.07,NNE,22,0.0,-999.0,76,0.00,,,0.00,open2300 v1.10,2013-02-04 05:31:00,
2013-02-04 00:41:00,22.8,16.4,30.06,NNE,22,0.0,-999.0,76,0.00,,,0.00,open2300 v1.10,2013-02-04 05:41:00,
2013-02-04 00:51:00,22.8,16.7,30.06,NNE,22,0.0,-999.0,77,0.00,,,0.00,open2300 v1.10,2013-02-04 05:51:00,
2013-02-04 01:01:00,23.0,16.9,30.06,NNE,22,0.0,-999.0,77,0.00,,,0.00,open2300 v1.10,2013-02-04 06:01:00,
2013-02-04 01:11:00,23.0,16.9,30.06,NNE,22,0.0,-999.0,77,0.00,,,0.00,open2300 v1.10,2013-02-04 06:11:00,
2013-02-04 01:21:00,23.0,16.9,30.05,NNE,22,0.0,-999.0,77,0.00,,,0.00,open2300 v1.10,2013-02-04 06:21:00,
2013-02-04 01:31:00,23.2,17.0,30.05,NNE,22,0.0,-999.0,77,0.00,,,0.00,open2300 v1.10,2013-02-04 06:31:00,
2013-02-04 01:41:00,23.2,17.0,30.05,NNE,22,0.0,-999.0,77,0.00,,,0.00,open2300 v1.10,2013-02-04 06:41:00,
2013-02-04 01:51:00,23.2,17.0,30.05,NNE,22,0.0,-999.0,77,0.00,,,0.00,open2300 v1.10,2013-02-04 06:51:00,
2013-02-04 02:01:00,23.2,17.3,30.05,NNE,22,0.0,-999.0,78,0.00,,,0.00,open2300 v1.10,2013-02-04 07:01:00,
2013-02-04 02:11:00,23.2,17.3,30.04,NNE,22,0.0,-999.0,78,0.00,,,0.00,open2300 v1.10,2013-02-04 07:11:00,
2013-02-04 02:21:00,23.2,17.3,30.04,NNE,22,0.0,-999.0,78,0.00,,,0.00,open2300 v1.10,2013-02-04 07:21:00,
2013-02-04 02:31:00,23.2,17.3,30.04,NNE,22,0.0,-999.0,78,0.00,,,0.00,open2300 v1.10,2013-02-04 07:31:00,
2013-02-04 02:41:00,23.2,17.3,30.03,NNE,22,0.0,-999.0,78,0.00,,,0.00,open2300 v1.10,2013-02-04 07:41:00,
2013-02-04 02:51:00,23.2,17.3,30.02,NNE,22,0.0,-999.0,78,0.00,,,0.00,open2300 v1.10,2013-02-04 07:51:00,
2013-02-04 03:01:00,23.2,17.3,30.01,NNE,22,0.0,-999.0,78,0.00,,,0.00,open2300 v1.10,2013-02-04 08:01:00,
2013-02-04 03:11:00,22.8,17.0,30.01,NNE,22,0.0,-999.0,78,0.00,,,0.00,open2300 v1.10,2013-02-04 08:11:00,
2013-02-04 03:21:00,22.8,17.3,30.01,NNE,22,0.0,-999.0,79,0.00,,,0.00,open2300 v1.10,2013-02-04 08:21:00,
2013-02-04 03:31:00,22.6,16.8,30.00,NNE,22,0.0,-999.0,78,0.00,,,0.00,open2300 v1.10,2013-02-04 08:31:00,
2013-02-04 03:41:00,22.3,16.5,30.00,NNE,22,0.0,-999.0,78,0.00,,,0.00,open2300 v1.10,2013-02-04 08:41:00,
2013-02-04 03:51:00,22.1,16.3,30.00,NNE,22,0.0,-999.0,78,0.00,,,0.00,open2300 v1.10,2013-02-04 08:51:00,
2013-02-04 04:01:00,21.9,16.1,29.98,NNE,22,0.0,-999.0,78,0.00,,,0.00,open2300 v1.10,2013-02-04 09:01:00,
2013-02-04 04:11:00,21.7,15.9,29.99,NNE,22,0.0,-999.0,78,0.00,,,0.00,open2300 v1.10,2013-02-04 09:11:00,
2013-02-04 04:21:00,21.6,16.0,29.97,NNE,22,0.0,-999.0,79,0.00,,,0.00,open2300 v1.10,2013-02-04 09:21:00,
2013-02-04 04:31:00,21.6,16.0,29.97,NNE,22,0.0,-999.0,79,0.00,,,0.00,open2300 v1.10,2013-02-04 09:31:00,
2013-02-04 04:41:00,21.6,16.0,29.96,NNE,22,0.0,-999.0,79,0.00,,,0.00,open2300 v1.10,2013-02-04 09:41:00,
2013-02-04 04:51:00,21.7,16.5,29.96,NNE,22,0.0,-999.0,80,0.00,,,0.00,open2300 v1.10,2013-02-04 09:51:00,
2013-02-04 05:01:00,21.9,16.7,29.95,NNE,22,0.0,-999.0,80,0.00,,,0.00,open2300 v1.10,2013-02-04 10:01:00,
2013-02-04 05:11:00,22.1,16.9,29.94,NNE,22,0.0,-999.0,80,0.00,,,0.00,open2300 v1.10,2013-02-04 10:11:00,
2013-02-04 05:21:00,22.1,16.9,29.94,NNE,22,0.0,-999.0,80,0.00,,,0.00,open2300 v1.10,2013-02-04 10:21:00,
2013-02-04 05:31:00,22.3,17.1,29.93,NNE,22,0.0,-999.0,80,0.00,,,0.00,open2300 v1.10,2013-02-04 10:31:00,
2013-02-04 05:41:00,22.6,17.4,29.93,NNE,22,0.0,-999.0,80,0.00,,,0.00,open2300 v1.10,2013-02-04 10:41:00,
2013-02-04 05:51:00,22.8,17.6,29.92,NNE,22,0.0,-999.0,80,0.00,,,0.00,open2300 v1.10,2013-02-04 10:51:00,
2013-02-04 06:01:00,22.8,17.6,29.92,NNE,22,0.0,-999.0,80,0.00,,,0.00,open2300 v1.10,2013-02-04 11:01:00,
2013-02-04 06:11:00,23.2,18.2,29.92,NNE,22,0.0,-999.0,81,0.00,,,0.00,open2300 v1.10,2013-02-04 11:11:00,
2013-02-04 06:21:00,23.4,18.4,29.92,NNE,22,0.0,-999.0,81,0.00,,,0.00,open2300 v1.10,2013-02-04 11:21:00,
2013-02-04 06:31:00,23.5,18.6,29.92,NNE,22,0.0,-999.0,81,0.00,,,0.00,open2300 v1.10,2013-02-04 11:31:00,
2013-02-04 06:41:00,23.9,19.0,29.92,NNE,22,0.0,-999.0,81,0.00,,,0.00,open2300 v1.10,2013-02-04 11:41:00,
2013-02-04 06:51:00,24.4,19.5,29.91,NNE,22,0.0,-999.0,81,0.00,,,0.00,open2300 v1.10,2013-02-04 11:51:00,
2013-02-04 07:01:00,24.6,19.7,29.90,NNE,22,0.0,-999.0,81,0.00,,,0.00,open2300 v1.10,2013-02-04 12:01:00,
2013-02-04 07:11:00,24.6,19.4,29.90,NNE,22,0.0,-999.0,80,0.00,,,0.00,open2300 v1.10,2013-02-04 12:11:00,
2013-02-04 07:21:00,25.0,19.4,29.90,NNE,22,0.0,-999.0,79,0.00,,,0.00,open2300 v1.10,2013-02-04 12:21:00,
2013-02-04 07:31:00,25.0,19.4,29.89,East,90,0.0,-999.0,79,0.00,,,0.00,open2300 v1.10,2013-02-04 12:31:00,
2013-02-04 07:41:00,25.0,19.4,29.89,NNE,22,6.9,-999.0,79,0.00,,,0.00,open2300 v1.10,2013-02-04 12:41:00,
2013-02-04 07:51:00,25.2,19.3,29.88,NNE,22,0.0,-999.0,78,0.00,,,0.00,open2300 v1.10,2013-02-04 12:51:00,
2013-02-04 08:01:00,25.2,19.3,29.88,NNE,22,0.0,-999.0,78,0.00,,,0.00,open2300 v1.10,2013-02-04 13:01:00,
2013-02-04 08:11:00,25.2,19.3,29.87,East,90,3.6,-999.0,78,0.00,,,0.00,open2300 v1.10,2013-02-04 13:11:00,
2013-02-04 08:21:00,25.2,19.3,29.86,NNE,22,0.0,-999.0,78,0.00,,,0.00,open2300 v1.10,2013-02-04 13:21:00,
2013-02-04 08:31:00,25.3,19.4,29.86,NNE,22,0.0,-999.0,78,0.00,,,0.00,open2300 v1.10,2013-02-04 13:31:00,
2013-02-04 08:41:00,25.5,19.6,29.86,NNE,22,0.0,-999.0,78,0.00,,,0.00,open2300 v1.10,2013-02-04 13:41:00,
2013-02-04 08:51:00,25.5,19.3,29.85,NNE,22,2.5,-999.0,77,0.00,,,0.00,open2300 v1.10,2013-02-04 13:51:00,
2013-02-04 09:01:00,25.7,19.4,29.86,NNE,22,0.0,-999.0,77,0.00,,,0.00,open2300 v1.10,2013-02-04 14:01:00,
2013-02-04 09:11:00,25.9,19.6,29.86,NNE,22,0.0,-999.0,77,0.00,,,0.00,open2300 v1.10,2013-02-04 14:11:00,
2013-02-04 09:21:00,26.2,19.9,29.85,NNE,22,0.0,-999.0,77,0.00,,,0.00,open2300 v1.10,2013-02-04 14:21:00,
2013-02-04 09:31:00,26.2,19.9,29.85,East,90,3.1,-999.0,77,0.00,,,0.00,open2300 v1.10,2013-02-04 14:31:00,
2013-02-04 09:41:00,26.8,20.5,29.85,NNE,22,0.0,-999.0,77,0.00,,,0.00,open2300 v1.10,2013-02-04 14:41:00,
2013-02-04 09:51:00,27.1,20.5,29.85,NNE,22,0.0,-999.0,76,0.00,,,0.00,open2300 v1.10,2013-02-04 14:51:00,
2013-02-04 10:01:00,27.5,20.9,29.84,NNE,22,0.0,-999.0,76,0.00,,,0.00,open2300 v1.10,2013-02-04 15:01:00,
2013-02-04 10:11:00,27.9,20.9,29.85,East,90,2.9,-999.0,75,0.00,,,0.00,open2300 v1.10,2013-02-04 15:11:00,
2013-02-04 10:21:00,28.0,21.1,29.84,NNE,22,0.0,-999.0,75,0.00,,,0.00,open2300 v1.10,2013-02-04 15:21:00,
2013-02-04 10:31:00,28.2,21.3,29.84,NNE,22,0.0,-999.0,75,0.00,,,0.00,open2300 v1.10,2013-02-04 15:31:00,
2013-02-04 10:41:00,28.8,21.8,29.84,NNE,22,1.6,-999.0,75,0.00,,,0.00,open2300 v1.10,2013-02-04 15:41:00,
2013-02-04 10:51:00,29.1,21.8,29.84,NNE,22,1.8,-999.0,74,0.00,,,0.00,open2300 v1.10,2013-02-04 15:51:00,
2013-02-04 11:01:00,29.7,22.3,29.84,NNE,22,0.0,-999.0,74,0.00,,,0.00,open2300 v1.10,2013-02-04 16:01:00,
2013-02-04 11:11:00,30.0,22.7,29.84,NNE,22,1.6,-999.0,74,0.00,,,0.00,open2300 v1.10,2013-02-04 16:11:00,
2013-02-04 11:21:00,30.0,22.4,29.84,NNE,22,2.5,-999.0,73,0.00,,,0.00,open2300 v1.10,2013-02-04 16:21:00,
2013-02-04 11:31:00,30.4,22.7,29.84,NNE,22,0.0,-999.0,73,0.00,,,0.00,open2300 v1.10,2013-02-04 16:31:00,
2013-02-04 11:41:00,30.6,22.9,29.84,NNE,22,3.6,-999.0,73,0.00,,,0.00,open2300 v1.10,2013-02-04 16:41:00,
2013-02-04 11:51:00,30.7,23.1,29.83,NNE,22,0.0,-999.0,73,0.00,,,0.00,open2300 v1.10,2013-02-04 16:51:00,
2013-02-04 12:01:00,31.1,23.4,29.83,NNE,22,0.0,-999.0,73,0.00,,,0.00,open2300 v1.10,2013-02-04 17:01:00,
2013-02-04 12:11:00,31.5,23.8,29.83,NNE,22,0.0,-999.0,73,0.00,,,0.00,open2300 v1.10,2013-02-04 17:11:00,
2013-02-04 12:21:00,31.6,23.6,29.82,NNE,22,6.5,-999.0,72,0.00,,,0.00,open2300 v1.10,2013-02-04 17:21:00,
2013-02-04 12:31:00,32.0,24.0,29.83,NNE,22,0.0,-999.0,72,0.00,,,0.00,open2300 v1.10,2013-02-04 17:31:00,
2013-02-04 12:41:00,32.7,25.0,29.82,NNE,22,0.0,-999.0,73,0.00,,,0.00,open2300 v1.10,2013-02-04 17:41:00,
2013-02-04 12:51:00,33.1,25.0,29.82,NNE,22,0.0,-999.0,72,0.00,,,0.00,open2300 v1.10,2013-02-04 17:51:00,
2013-02-04 13:11:00,33.6,25.8,29.81,NNE,22,0.0,-999.0,73,0.00,,,0.00,open2300 v1.10,2013-02-04 18:11:00,
2013-02-04 13:21:00,33.6,25.8,29.81,NNE,22,0.0,-999.0,73,0.00,,,0.00,open2300 v1.10,2013-02-04 18:21:00,
2013-02-04 13:31:00,33.8,26.0,29.81,NNE,22,0.0,-999.0,73,0.00,,,0.00,open2300 v1.10,2013-02-04 18:31:00,
2013-02-04 13:41:00,34.0,26.1,29.81,North,0,0.0,-999.0,73,0.00,,,0.00,open2300 v1.10,2013-02-04 18:41:00,
2013-02-04 13:51:00,34.5,26.7,29.80,NNE,22,0.0,-999.0,73,0.00,,,0.00,open2300 v1.10,2013-02-04 18:51:00,
2013-02-04 14:01:00,36.3,28.5,29.80,North,0,0.0,-999.0,73,0.00,,,0.00,open2300 v1.10,2013-02-04 19:01:00,
2013-02-04 14:11:00,37.9,29.4,29.80,NNE,22,0.0,-999.0,71,0.00,,,0.00,open2300 v1.10,2013-02-04 19:11:00,
2013-02-04 14:21:00,38.5,29.9,29.80,North,0,0.0,-999.0,71,0.00,,,0.00,open2300 v1.10,2013-02-04 19:21:00,
2013-02-04 14:31:00,39.0,30.0,29.79,WNW,292,0.0,-999.0,70,0.00,,,0.00,open2300 v1.10,2013-02-04 19:31:00,
2013-02-04 14:41:00,39.0,30.0,29.79,WNW,292,0.0,-999.0,70,0.00,,,0.00,open2300 v1.10,2013-02-04 19:41:00,
2013-02-04 14:51:00,38.8,29.9,29.80,WNW,292,0.0,-999.0,70,0.00,,,0.00,open2300 v1.10,2013-02-04 19:51:00,
2013-02-04 15:01:00,38.3,29.4,29.79,WNW,292,0.0,-999.0,70,0.00,,,0.00,open2300 v1.10,2013-02-04 20:01:00,
2013-02-04 15:11:00,38.1,29.5,29.80,WNW,292,0.0,-999.0,71,0.00,,,0.00,open2300 v1.10,2013-02-04 20:11:00,
2013-02-04 15:21:00,38.3,29.7,29.80,North,0,0.0,-999.0,71,0.00,,,0.00,open2300 v1.10,2013-02-04 20:21:00,
2013-02-04 15:31:00,38.3,29.4,29.81,North,0,0.0,-999.0,70,0.00,,,0.00,open2300 v1.10,2013-02-04 20:31:00,
2013-02-04 15:41:00,37.6,29.1,29.81,North,0,0.0,-999.0,71,0.00,,,0.00,open2300 v1.10,2013-02-04 20:41:00,
2013-02-04 15:51:00,37.2,28.7,29.81,North,0,0.0,-999.0,71,0.00,,,0.00,open2300 v1.10,2013-02-04 20:51:00,
2013-02-04 16:01:00,36.3,27.8,29.82,North,0,6.9,-999.0,71,0.00,,,0.00,open2300 v1.10,2013-02-04 21:01:00,
2013-02-04 16:11:00,35.4,27.2,29.82,North,0,0.0,-999.0,72,0.00,,,0.00,open2300 v1.10,2013-02-04 21:11:00,
2013-02-04 16:21:00,34.9,26.7,29.82,North,0,6.9,-999.0,72,0.00,,,0.00,open2300 v1.10,2013-02-04 21:21:00,
2013-02-04 16:31:00,34.3,26.5,29.82,North,0,4.7,-999.0,73,0.00,,,0.00,open2300 v1.10,2013-02-04 21:31:00,
2013-02-04 16:41:00,34.3,26.8,29.83,NNE,22,0.0,-999.0,74,0.00,,,0.00,open2300 v1.10,2013-02-04 21:41:00,
2013-02-04 16:51:00,34.2,26.6,29.83,NNE,22,0.0,-999.0,74,0.00,,,0.00,open2300 v1.10,2013-02-04 21:51:00,
2013-02-04 17:01:00,33.6,26.4,29.82,North,0,3.8,-999.0,75,0.00,,,0.00,open2300 v1.10,2013-02-04 22:01:00,
2013-02-04 17:11:00,33.4,26.3,29.82,NNE,22,0.0,-999.0,75,0.00,,,0.00,open2300 v1.10,2013-02-04 22:11:00,
2013-02-04 17:21:00,32.9,25.8,29.82,NNE,22,0.0,-999.0,75,0.00,,,0.00,open2300 v1.10,2013-02-04 22:21:00,
2013-02-04 17:31:00,32.5,25.8,29.82,NNE,22,0.0,-999.0,76,0.00,,,0.00,open2300 v1.10,2013-02-04 22:31:00,
2013-02-04 17:41:00,32.2,25.5,29.81,NNE,22,0.0,-999.0,76,0.00,,,0.00,open2300 v1.10,2013-02-04 22:41:00,
2013-02-04 17:51:00,32.0,25.3,29.82,NNE,22,0.0,-999.0,76,0.00,,,0.00,open2300 v1.10,2013-02-04 22:51:00,
2013-02-04 18:01:00,31.8,25.1,29.82,NNE,22,2.7,-999.0,76,0.00,,,0.00,open2300 v1.10,2013-02-04 23:01:00,
2013-02-04 18:11:00,31.6,24.9,29.83,NNE,22,0.0,-999.0,76,0.00,,,0.00,open2300 v1.10,2013-02-04 23:11:00,
2013-02-04 18:21:00,31.6,25.3,29.84,NNE,22,0.0,-999.0,77,0.00,,,0.00,open2300 v1.10,2013-02-04 23:21:00,
2013-02-04 18:31:00,31.3,24.9,29.84,NNE,22,0.0,-999.0,77,0.00,,,0.00,open2300 v1.10,2013-02-04 23:31:00,
2013-02-04 18:41:00,31.3,24.9,29.85,NNE,22,1.6,-999.0,77,0.00,,,0.00,open2300 v1.10,2013-02-04 23:41:00,
2013-02-04 18:51:00,30.7,24.7,29.86,NNE,22,7.2,-999.0,78,0.00,,,0.00,open2300 v1.10,2013-02-04 23:51:00,
2013-02-04 19:01:00,30.0,24.0,29.87,North,0,9.2,-999.0,78,0.00,,,0.00,open2300 v1.10,2013-02-05 00:01:00,
2013-02-04 19:11:00,29.7,23.6,29.87,North,0,6.0,-999.0,78,0.00,,,0.00,open2300 v1.10,2013-02-05 00:11:00,
2013-02-04 19:21:00,29.5,23.8,29.88,NNE,22,4.2,-999.0,79,0.00,,,0.00,open2300 v1.10,2013-02-05 00:21:00,
2013-02-04 19:31:00,29.3,23.6,29.89,North,0,7.2,-999.0,79,0.00,,,0.00,open2300 v1.10,2013-02-05 00:31:00,
2013-02-04 19:41:00,29.1,23.4,29.89,NNE,22,4.7,-999.0,79,0.00,,,0.00,open2300 v1.10,2013-02-05 00:41:00,
2013-02-04 19:51:00,28.9,23.2,29.89,NNE,22,1.8,-999.0,79,0.00,,,0.00,open2300 v1.10,2013-02-05 00:51:00,
2013-02-04 20:01:00,28.8,22.7,29.91,NNE,22,6.9,-999.0,78,0.00,,,0.00,open2300 v1.10,2013-02-05 01:01:00,
2013-02-04 20:11:00,28.8,22.7,29.91,NNE,22,6.0,-999.0,78,0.00,,,0.00,open2300 v1.10,2013-02-05 01:11:00,
2013-02-04 20:21:00,28.6,22.5,29.92,NNE,22,4.7,-999.0,78,0.00,,,0.00,open2300 v1.10,2013-02-05 01:21:00,
2013-02-04 20:31:00,28.6,22.5,29.92,NNE,22,1.6,-999.0,78,0.00,,,0.00,open2300 v1.10,2013-02-05 01:31:00,
2013-02-04 20:41:00,28.6,22.5,29.92,North,0,0.0,-999.0,78,0.00,,,0.00,open2300 v1.10,2013-02-05 01:41:00,
2013-02-04 20:51:00,28.6,22.5,29.91,NNE,22,6.0,-999.0,78,0.00,,,0.00,open2300 v1.10,2013-02-05 01:51:00,
2013-02-04 21:01:00,28.6,22.5,29.92,NNE,22,1.6,-999.0,78,0.00,,,0.00,open2300 v1.10,2013-02-05 02:01:00,
2013-02-04 21:11:00,28.2,22.2,29.91,NNE,22,1.6,-999.0,78,0.00,,,0.00,open2300 v1.10,2013-02-05 02:11:00,
2013-02-04 21:21:00,28.2,22.2,29.92,NNE,22,0.0,-999.0,78,0.00,,,0.00,open2300 v1.10,2013-02-05 02:21:00,
2013-02-04 21:31:00,28.2,22.2,29.92,North,0,0.0,-999.0,78,0.00,,,0.00,open2300 v1.10,2013-02-05 02:31:00,
2013-02-04 21:41:00,28.2,22.2,29.92,NNE,22,1.8,-999.0,78,0.00,,,0.00,open2300 v1.10,2013-02-05 02:41:00,
2013-02-04 21:51:00,28.2,22.2,29.92,NNE,22,0.0,-999.0,78,0.00,,,0.00,open2300 v1.10,2013-02-05 02:51:00,
2013-02-04 22:01:00,28.2,22.5,29.92,NNE,22,0.0,-999.0,79,0.00,,,0.00,open2300 v1.10,2013-02-05 03:01:00,
2013-02-04 22:11:00,28.0,22.3,29.91,NNE,22,0.0,-999.0,79,0.00,,,0.00,open2300 v1.10,2013-02-05 03:11:00,
2013-02-04 22:21:00,28.0,22.3,29.92,NNE,22,0.0,-999.0,79,0.00,,,0.00,open2300 v1.10,2013-02-05 03:21:00,
2013-02-04 22:31:00,28.0,22.3,29.93,NNE,22,0.0,-999.0,79,0.00,,,0.00,open2300 v1.10,2013-02-05 03:31:00,
2013-02-04 22:41:00,27.7,22.0,29.93,NNE,22,0.0,-999.0,79,0.00,,,0.00,open2300 v1.10,2013-02-05 03:41:00,
2013-02-04 22:51:00,27.7,22.0,29.93,NNE,22,0.0,-999.0,79,0.00,,,0.00,open2300 v1.10,2013-02-05 03:51:00,
2013-02-04 23:01:00,27.5,21.8,29.92,NNE,22,0.0,-999.0,79,0.00,,,0.00,open2300 v1.10,2013-02-05 04:01:00,
2013-02-04 23:11:00,27.3,21.6,29.92,NNE,22,0.0,-999.0,79,0.00,,,0.00,open2300 v1.10,2013-02-05 04:11:00,
2013-02-04 23:21:00,27.1,21.4,29.91,NNE,22,0.0,-999.0,79,0.00,,,0.00,open2300 v1.10,2013-02-05 04:21:00,
2013-02-04 23:31:00,27.1,21.7,29.92,NNE,22,0.0,-999.0,80,0.00,,,0.00,open2300 v1.10,2013-02-05 04:31:00,
2013-02-04 23:41:00,27.1,22.0,29.92,NNE,22,0.0,-999.0,81,0.00,,,0.00,open2300 v1.10,2013-02-05 04:41:00,
2013-02-04 23:51:00,27.0,21.9,29.93,NNE,22,0.0,-999.0,81,0.00,,,0.00,open2300 v1.10,2013-02-05 04:51:00,